Regional Weather Roundup
Issued by NWS Newport/Morehead, NC

Current Version | Previous Version | Graphics & Text | Print | Product List | Glossary Off
Versions: 1 2 3 4 5 6 7 8 9 10 11 12 13 14 15 16 17 18 19 20 21 22 23 24 25 26 27 28 29 30 31 32 33 34 35 36 37 38 39 40 41 42 43 44 45 46 47 48 49 50

000
ASUS42 KMHX 221425
RWRMHX
WEATHER ROUNDUP FOR EASTERN NORTH CAROLINA
NATIONAL WEATHER SERVICE NEWPORT/MOREHEAD CITY NC
1000 AM EDT MON MAY 22 2017

NOTE: "FAIR" INDICATES FEW OR NO CLOUDS BELOW 12,000 FEET
WITH NO SIGNIFICANT WEATHER AND/OR OBSTRUCTIONS TO VISIBILITY

NCZ015>017-031-032-045>047-102-103-221500-
NORTH COAST

CITY           SKY/WX    TMP DP  RH WIND       PRES   REMARKS
EDENTON        CLOUDY    76  70  82 S6        30.07F
ELIZABETH CITY CLOUDY    75  72  90 S6        30.07F
KITTY HAWK     NOT AVBL
MANTEO         CLOUDY    75  71  85 S12       30.08F

$$

NCZ045>047-081-094-103-104-221500-
CENTRAL COAST

CITY           SKY/WX    TMP DP  RH WIND       PRES   REMARKS
FRISCO         CLOUDY    75  69  81 SE5       30.10S

$$

NCZ095-097-098-100-101-221500-
SOUTHERN COAST

CITY           SKY/WX    TMP DP  RH WIND       PRES   REMARKS
BEAUFORT       PTSUNNY   78  70  76 SW12      30.08F
CEDAR ISLAND   NOT AVBL
JACKSONVILLE   PTSUNNY   80  70  71 SW13G21   30.06F
PINEY ISLAND   MOSUNNY  N/A N/A N/A S12       30.08F
WILMINGTON     CLOUDY    78  69  73 SW9       30.07F


$$

NCZ011>013-027>030-043-044-078>080-089-090>093-098-221500-
COASTAL PLAIN

CITY           SKY/WX    TMP DP  RH WIND       PRES   REMARKS
AHOSKIE          N/A     70  68  93 SE6       30.04F
CLINTON        CLOUDY    76  71  84 SW9       30.06S
ELIZABETHTOWN  CLOUDY    76  70  81 SW8       30.07S
GOLDSBORO      PTSUNNY   78  73  85 S15G23    30.02F
GREENVILLE     CLOUDY    77  70  78 SW10      30.06F
HAVELOCK       MOSUNNY   81  67  62 SW14G22   30.08F
KENANSVILLE    CLOUDY    77  68  73 SW8       30.06F
KINSTON        CLOUDY    79  68  69 S16       30.05F
NEW BERN       CLOUDY    78  70  76 SW10      30.08F
RICHLANDS      CLOUDY    77  70  79 S13       30.07F
ROCKY MOUNT    CLOUDY    72  71  97 S9        30.02F
WASHINGTON     CLOUDY    76  70  79 S10       30.05F
WHITEVILLE     MOSUNNY   77  70  77 S10       30.07S

$$

AMZ130-135-150-152-154-156-158-170-250-252-270-ANZ085-086-088-633-658-670-221500-
MARINE OBSERVATIONS

STATION/POSITION TIME  TEMP    WIND        PRES    WAVE   SWELL
                       AIR SEA DIR/SP/G            HT/PER HT/PER
                 (UTC) (F)     (DEG/KT/KT) (MB)    (FT/S) (FT/S)
CHESAPEAKE LIGHT NOT AVBL
64 E VA BEACH    1350   70 69  160/  8/ 10 1019.5    5/ 7   5/ 7
DUCK             1400   69 66  150/ 10/ 11 1017.9
2 E DUCK         1400      66                N/A     4/ 7
OREGON INLET     1400   73 69  150/  9/ 12 1018.6
13E OREGON INLT  1348      65                N/A     4/ 9   3/ 9
HATTERAS CG      1400   74 74  150/  5/  6 1018.9
DIAMOND BUOY     1350   74 78  140/  8/ 10 1019.3    4/ 9   3/ 9
CAPE LOOKOUT     1400   76     220/  7/  8 1018.6
BEAUFORT LAB     1400   77 74  210/  9/ 11 1018.0
30 SE NEW RVR IN 1408   76 76  230/ 12/ 16 1018.9
30 SE NEW RVR IN 1343      76                N/A     3/ 8
27 SE WRIGHTSVLE 1408   76 75  210/ 12/ 16 1018.4
5 SE WRIGHTSVLE  1408   76 75  210/ 10/ 16 1018.5
225 S CAPE HAT   1350   75 77  240/  6/  8 1020.3    3/ 8   3/ 8
41 SE CHARLESTON 1410   77 77  190/ 10/ 14 1018.5

$$



USA.gov is the U.S. government's official web portal to all federal, state and local government web resources and services.